Current weather by "City, St" or "zip code"  
 
Advertise Here

Current Conditions: Sundance Airport, OK

Fair


91.0 F

Last Updated on Jun 18 2021, 6:50 pm CDT
Humidity: 44%
Wind Speed: S 16.1 G 24.2 mph
Barometer 29.85 in
Dewpoint: 66.2 F
Visibility: 10.00 mi
Precip: --
Heat Index: 94 F
Wind Chill: NA
Current conditions at:

Sundance Airport, OK (KHSD)

Lat: 35.60183 Lon: 97.70616

Local Radar Image active severe weather and emergency alerts image image weather storm and storm spotter reports image weather observation monitoring service image
Local
Radar
Active
Alerts
Storm Reports Obs
Monitoring

Sign-up For Email & Text Message Weather Alert Notification Services


Advertise Here

Observation History for Sundance Airport, OK


Time Wind
(mph)
Vis
(mi)
Weather Precip (in) Temperature (F) Relative
Humidity
Wind
Chill
(F)
Heat
Index
(F)
Pressure
Air Dwpt altimeter
(in)
sea level
(mb)
Rmks
6:50 pm CDT S 16.1 G 24.2 10.00 Fair -- 91.0 66.2 44% NA 94 29.85 M
5:55 pm CDT S 18.4 G 24.2 10.00 Fair -- 93.0 64.4 39% NA 95 29.85 M
3:55 pm CDT S 17.3 10.00 Fair -- 95.0 64.4 36% NA 97 29.87 M
2:50 pm CDT S 17.3 10.00 Fair -- 95.0 62.6 34% NA 96 29.88 M
1:50 pm CDT S 17.3 10.00 Fair -- 95.0 62.6 34% NA 96 29.90 M
12:55 pm CDT S 18.4 10.00 Fair -- 93.0 62.6 36% NA 94 29.92 M
11:55 am CDT S 18.4 G 25.3 10.00 Fair -- 91.0 64.4 41% NA 93 29.93 M
10:55 am CDT SW 11.5 G 19.6 10.00 Fair -- 90.0 66.2 46% NA 93 29.94 M
9:55 am CDT SW 16.1 10.00 Fair -- 86.0 66.2 52% NA 88 29.94 M
7:00 am CDT S 11.5 10.00 Fair -- 75.0 66.2 74% NA NA 29.94 M
6:55 am CDT S 12.7 10.00 Fair -- 75.0 66.2 74% NA NA 29.94 M
5:35 am CDT S 9.2 10.00 Fair -- 73.0 64.4 74% NA NA 29.93 M
4:55 am CDT S 8.1 10.00 Fair -- 73.0 66.2 78% NA NA 29.94 M
3:55 am CDT S 10.4 10.00 Fair -- 77.0 64.4 65% NA NA 29.93 M
2:55 am CDT S 10.4 10.00 Fair -- 77.0 66.2 69% NA NA 29.94 M
1:50 am CDT S 11.5 10.00 Fair -- 79.0 66.2 65% NA NA 29.94 M
12:50 am CDT S 9.2 10.00 Fair -- 79.0 66.2 65% NA NA 29.95 M
11:50 pm CDT S 10.4 10.00 Fair -- 81.0 66.2 62% NA 83 29.96 M
10:50 pm CDT S 11.5 10.00 Fair -- 82.0 66.2 58% NA 84 29.96 M
9:30 pm CDT S 9.2 10.00 Fair -- 86.0 68.0 55% NA 89 29.94 M
8:50 pm CDT S 8.1 10.00 Fair -- 86.0 64.4 49% NA 87 29.94 M
7:50 pm CDT S 12.7 10.00 Fair -- 91.0 64.4 41% NA 93 29.93 M

Regional Weather Observation


Clarence E Page Municipal Airport, OK (KRCE)

Fair
91.0 F

Oklahoma City, Wiley Post Airport, OK (KPWA)

Fair
92.0 F

Guthrie, Guthrie Municipal Airport, OK (KGOK)

Fair
91.0 F

El Reno, El Reno Regional Airport, OK (KRQO)

Fair
93.0 F

Watonga, Watonga Airport, OK (KJWG)

Fair
94.0 F

Oklahoma City, Will Rogers World Airport, OK (KOKC)

A Few Clouds
90.0 F
Advertise Here

Advertise Here